Starlink 4070

operational
NORAD ID: 52664 Int'l Des: 2022-053 Owner: SPXS Country: US Constellation: starlink
LEOCIRCULAR

Über Starlink 4070

Beschreibung wird geladen...

Live-Position

3D-Globus wird geladen...

Nächste Überflüge

Höhenverlauf

Altitude vs Time

uPlot chart will show altitude changes over time

Zweizeiliger Elementsatz

1 52664U 22053J 25303.45221128 -.00000811 00000-0 -32907-4 0 9990
2 52664 53.2186 18.7811 0001382 90.8060 269.3091 15.08832860191386
Epoch: 30. Okt. 2025 • Age: 23 hours

Aktueller Status

Höhe 543.4 km
Geschwindigkeit 7.60 km/s
Subsatellitenpunkt 43.82°N, 120.43°W
Startdatum 18. Mai 2022
Alter 3.4 years
Typ internet

Technische Details

Klassifizierung Payload
Masse 297.00 kg
Trockenmasse 275.00 kg
Gesamtmasse 297.00 kg
Länge 0.20 m
Durchmesser 2.80 m
Spannweite 9.00 m
Form Box + pan
Hersteller SPXS
Bus-Typ Starlink
Phasenstatus In Orbit
Besitzer/Staat SPXS/US

Große Konstellationen

Loading constellations...